Погода в Черепете

Россия / Тульская область     54°07′02″N   36°23′01″E
темп.,
°C
ветер,
м/с
пор.,
м/с
влажн.,
%
обл.,
%
осадки,
мм/ч
давл.,
гПа
погр.,
м
7 мая, пт
пт700:00+7юз2795100 0.0 1010231
03:00+5зюз2793100 0.0 1011191
06:00+5юз268990 0.0 1011186
09:00+10з46584 0.0 1012937
12:00+13зюз36364 0.0 10132189
15:00+14ююз473378 0.0 10132544
18:00+13ю475177 0.0 10121273
21:00+8ююв387451 0.0 1012152
8 мая, сб
сб800:00+9юв51465100 0.0 1011541
03:00+8ююв61389100 2.3 1010924
06:00+8ююв81693100 5.1 1007916
09:00+8ю61394100 8.3 1005903
12:00+9ю51297100 4.1 1004787
15:00+10юз3698100 8.6 1002524
18:00+11зюз358797 0.5 1003640
21:00+9ююз3796100 0.6 1003309
9 мая, вс
вс900:00+5ю379488 0.6 1004262
03:00+5зсз3796100 0.8 1005583
06:00+3сз81697100 1.3 10091014
09:00+5сз81489100 2.7 10131246
12:00+8сз81175100 0.4 10161446
15:00+10сз6105363 0.6 10171996
18:00+11сз610575 0.1 10191669
21:00+5сз39785 0.1 1023157
10 мая, пн
пн1000:00+4сз38805 0.0 1024144
03:00+2ссз378415 0.0 1026119
06:00+3ссз28815 0.0 1028187
09:00+10с595780 0.0 1028764
12:00+13ссв574449 0.0 10281491
15:00+15ссв58425 0.0 10281483
18:00+13св48550 0.0 1028967
21:00+8св35790 0.0 102974
11 мая, вт
вт1100:00+6св311790 0.0 1029193
03:00+5св411790 0.0 1029221
06:00+6св413760 0.0 1029354
09:00+12всв611620 0.0 1028655
12:00+16всв68520 0.0 1027896
15:00+18всв57550 0.0 10261091
18:00+17всв46672 0.0 10261010
21:00+12всв378717 0.0 1027119